Pian Rosa, Italy

10:09 PM CEST on August 25, 2016 (GMT +0200)
Pian Rosa

Weather History for LIMH - April, 2014

Change the Weather History Date:

Tuesday, April 29, 2014

  Actual Average Record
Temperature  
Mean Temperature 22 °F -  
Max Temperature 29 °F 29 °F 35 °F (1999)
Min Temperature 15 °F 18 °F 8 °F (2016)
Degree Days  
Heating Degree Days 43    
Moisture  
Dew Point 22 °F    
Average Humidity 95    
Maximum Humidity 100    
Minimum Humidity 76    
Precipitation  
Precipitation 0.00 in - - ()
Sea Level Pressure  
Sea Level Pressure 29.91 in    
Wind  
Wind Speed 10 mph ()    
Max Wind Speed 22 mph    
Max Gust Speed -    
Visibility 1.6 miles    
Events Fog , Snow    
Averages and records for this station are not official NWS values.
T = Trace of Precipitation, MM = Missing Value Source: Averaged Metar Reports

Daily Weather History Graph

Daily Weather History Graph

Search for Another Location

Airport or City:

Trip Planner

Search our weather history database for the weather conditions in past years. The results will help you decide how hot, cold, wet, or windy it might be!

Date:

Astronomy

Apr. 29, 2014 Rise Set
Actual Time 6:19 AM CEST 8:34 PM CEST
Civil Twilight 5:47 AM CEST 9:07 PM CEST
Nautical Twilight 5:06 AM CEST 9:47 PM CEST
Astronomical Twilight 4:21 AM CEST 10:33 PM CEST
Moon 6:28 AM CEST (4/29) 8:58 PM CEST (4/29)
Length of Visible Light 15h 20m
Length of Day
14h 14m
New Moon, 0% of the Moon is Illuminated
Apr 29
New Moon
May 7
First Quarter
May 14
Full
May 21
Last Quarter
May 28
New

Hourly Weather History & Observations

Time (CEST) Temp. Windchill Dew Point Humidity Pressure Visibility Wind Dir Wind Speed Gust Speed Precip Events Conditions
12:00 AM 15 °F - 15 °F 99%  in 0 mi ENE 21.9 mph - - Snow Snow
12:55 AM 15.8 °F -1.5 °F 15.8 °F 100% 29.83 in 0.1 mi ENE 20.7 mph - N/A Fog , Snow Light Snow
1:00 AM 15 °F - 15 °F 99%  in 0 mi ENE 20.7 mph - - Snow Light Snow
1:55 AM 15.8 °F 0.9 °F 15.8 °F 100% 29.83 in 0.1 mi ENE 15.0 mph - N/A Fog , Snow Light Snow
2:00 AM 16 °F - 15 °F 94%  in 0 mi ENE 15.0 mph - - Snow Light Snow
2:55 AM 15.8 °F 0.3 °F 15.8 °F 100% 29.83 in 0.5 mi ENE 16.1 mph - N/A Fog , Snow Light Snow
3:00 AM 17 °F - 16 °F 94%  in 0 mi ENE 16.1 mph - - Snow Light Snow
3:55 AM 17.6 °F 10.7 °F 17.6 °F 100% 29.86 in 0.5 mi WSW 4.6 mph - N/A Fog , Snow Light Snow
4:00 AM 18 °F - 17 °F 96%  in 0 mi WSW 4.6 mph - - Snow Light Snow
5:00 AM 19 °F - 19 °F 100%  in 6 mi WNW 3.5 mph - - Snow Light Snow
5:55 AM 19.4 °F 12.8 °F 19.4 °F 100% 29.86 in 6.2 mi East 4.6 mph - N/A   Scattered Clouds
6:00 AM 20 °F - 20 °F 99%  in 9 mi East 4.6 mph - -   Partly Cloudy
6:55 AM 21.2 °F 13.6 °F 21.2 °F 100% 29.86 in 6.2 mi SW 5.8 mph - N/A   Scattered Clouds
7:00 AM 21 °F - 21 °F 99%  in 16 mi SW 5.8 mph - -   Partly Cloudy
7:55 AM 21.2 °F 14.9 °F 21.2 °F 100% 29.89 in 0.2 mi WSW 4.6 mph - N/A Fog Light Freezing Fog
8:00 AM 22 °F - 22 °F 100%  in 0 mi WSW 4.6 mph - - Fog Heavy Fog
8:55 AM 23.0 °F 12.4 °F 23.0 °F 100% 29.89 in 0.5 mi SSE 10.4 mph - N/A Fog Light Freezing Fog
9:00 AM 24 °F - 24 °F 98%  in 0 mi SSE 10.4 mph - - Fog Heavy Fog
9:55 AM 28.4 °F 23.3 °F 28.4 °F 100% 29.92 in 0.1 mi SW 4.6 mph - N/A Fog Light Freezing Fog
10:00 AM 28 °F - 28 °F 98%  in 0 mi SW 4.6 mph - - Fog Heavy Fog
10:55 AM 26.6 °F 22.6 °F 26.6 °F 100% 29.92 in 0.1 mi SW 3.5 mph - N/A Fog Light Freezing Fog
11:00 AM 27 °F - 27 °F 100%  in 0 mi SW 3.5 mph - - Fog Heavy Fog
11:55 AM 28.4 °F 24.6 °F 28.4 °F 100% 29.95 in 0.1 mi Variable 3.5 mph - N/A Fog Light Freezing Fog
12:00 PM 28 °F - 28 °F 100%  in 0 mi 3.5 mph - - Fog Heavy Fog
12:55 PM 28.4 °F 22.2 °F 28.4 °F 100% 29.95 in 0.1 mi SW 5.8 mph - N/A Fog Light Freezing Fog
1:00 PM 29 °F - 29 °F 99%  in 0 mi SW 5.8 mph - - Fog Heavy Fog
1:55 PM 28.4 °F 24.6 °F 28.4 °F 100% 29.95 in 0.1 mi Variable 3.5 mph - N/A Fog Light Freezing Fog
2:00 PM 29 °F - 29 °F 100%  in 0 mi 3.5 mph - - Fog Heavy Fog
2:55 PM 28.4 °F 22.2 °F 28.4 °F 100% 29.98 in 0.1 mi SSW 5.8 mph - N/A Fog Light Freezing Fog
3:00 PM 28 °F - 28 °F 99%  in 0 mi SSW 5.8 mph - - Fog Heavy Fog
3:55 PM 28.4 °F 24.6 °F 26.6 °F 93% 29.95 in 0.1 mi Variable 3.5 mph - N/A Fog , Snow Light Snow
4:00 PM 28 °F - 27 °F 96%  in 0 mi 3.5 mph - - Snow Light Snow
4:55 PM 26.6 °F 15.2 °F 24.8 °F 93% 29.95 in 0.5 mi SSW 13.8 mph - N/A Fog Light Freezing Fog
5:00 PM 26 °F - 24 °F 91%  in 0 mi SSW 13.8 mph - - Fog Heavy Fog
5:55 PM 26.6 °F 17.5 °F 24.8 °F 93% 29.95 in 0.1 mi SSW 9.2 mph - N/A Fog , Snow Light Snow
6:00 PM 26 °F - 24 °F 91%  in 0 mi SSW 9.2 mph - - Snow Light Snow
6:55 PM 24.8 °F 12.9 °F 21.2 °F 86% 29.95 in 0.1 mi SSW 13.8 mph - N/A Fog , Snow Light Snow
7:00 PM 24 °F - 22 °F 88%  in 0 mi SSW 13.8 mph - - Snow Light Snow
7:55 PM 23.0 °F 13.9 °F 21.2 °F 93% 29.92 in 0.5 mi SW 8.1 mph - N/A Fog Light Freezing Fog
8:00 PM 23 °F - 20 °F 86%  in 0 mi SW 8.1 mph - - Fog Heavy Fog
8:55 PM 21.2 °F 11.7 °F 19.4 °F 93% 29.92 in 0.5 mi SW 8.1 mph - N/A Fog Light Freezing Fog
9:00 PM 20 °F - 20 °F 97%  in 0 mi SW 8.1 mph - - Fog Heavy Fog
9:55 PM 21.2 °F 14.9 °F 17.6 °F 86% 29.95 in 6.2 mi WNW 4.6 mph - N/A   Partly Cloudy
10:00 PM 21 °F - 17 °F 80%  in 7 mi WNW 4.6 mph - - Fog Light Fog
10:55 PM 19.4 °F 12.8 °F 14.0 °F 80% 29.92 in 6.2 mi North 4.6 mph - N/A   Partly Cloudy
11:00 PM 19 °F - 15 °F 76%  in 6 mi North 4.6 mph - -   Partly Cloudy
11:55 PM 19.4 °F 9.5 °F 14.0 °F 80% 29.89 in - NE 8.1 mph - N/A   Clear